User: anonymous
Location: NJAA Observatory
(40.6819°N, 74.8979°W)
Time: 04:34:43
(UTC-04:00)
Language:

Cosmos 1939 Rocket - Orbit

View from above orbital plane
View from above orbital plane
View from above satellite
View from above satellite

Ground track
Ground track

The orbit data is extracted from the following two-line orbital elements,

1 19046U 88032B   14214.11454174  .00000787  00000-0  68126-4 0  9405
2 19046 097.6494 267.8637 0033481 308.3856 051.4361 14.99624220415089
Epoch (UTC): 02 August 2014 02:44:56
Eccentricity: 0.0033481
inclination: 97.6494°
perigee height: 545 km
apogee height: 591 km
right ascension of ascending node: 267.8637°
argument of perigee: 308.3856°
revolutions per day: 14.99624220
mean anomaly at epoch: 51.4361°
orbit number at epoch: 41508

The dashed part of the orbit path shows where the satellite is in the earth's shadow,  

DLR